Monday, February 25, 2013

Avoca, PA
on Thursday, October 11, 2012

Thursday
Previous Day Next Day
Daily Summary
 ActualAverageRecord
Temperature
Mean Temperature °F 52°F  
Max Temperature 56°F 62°F 86°F (1949)
Min Temperature 39°F 42°F 26°F (1956)
Degree Days
Heating Degree Days 17 13  
Month to date heating degree days 106 121  
Since 1 July heating degree days 223 283  
Cooling Degree Days 0 0  
Month to date cooling degree days 3 0  
Year to date cooling degree days 864 576  
Moisture
Dew Point 32°F   
Average Humidity 57    
Maximum Humidity 79    
Minimum Humidity 35    
Precipitation
Precipitation T in 0.12 in 2.08 in (2007)
Month to date precipitation 1.06 1.29  
Year to date precipitation 28.41 30.39  
Wind
Wind Speed 7 mph   
Max Wind Speed 15 mph   
Max Gust Speed 22 mph   
Visibility 10 miles   
Events     

Key: T is trace of precipitation, MM is missing value
Source: NWS Daily Summary
Time(EDT)TemperatureDew PointHumidity Pressure Visibility Wind DirectionWind SpeedGust SpeedPrecipitationEvents Conditions
12:54 AM 45.0°F 37.9°F 76% 30.01 in 10.0 miles WSW 8.1 mph - N/A   Scattered Clouds
1:54 AM 44.1°F 36.0°F 73% 30.03 in 10.0 miles SW 6.9 mph - N/A   Partly Cloudy
2:54 AM 45.0°F 36.0°F 71% 30.04 in 10.0 miles West 6.9 mph - 0.00 in   Overcast
3:54 AM 44.1°F 33.1°F 65% 30.06 in 10.0 miles SW 8.1 mph - N/A   Overcast
4:54 AM 42.1°F 32.0°F 67% 30.09 in 10.0 miles WSW 10.4 mph - N/A   Clear
5:54 AM 41.0°F 30.9°F 67% 30.13 in 10.0 miles WSW 4.6 mph - N/A   Partly Cloudy
6:54 AM 39.0°F 33.1°F 79% 30.16 in 10.0 miles SW 5.8 mph - N/A   Clear
7:54 AM 39.9°F 33.1°F 77% 30.19 in 10.0 miles SW 8.1 mph - N/A   Clear
8:54 AM 42.1°F 33.1°F 70% 30.22 in 10.0 miles WSW 9.2 mph - N/A   Clear
9:54 AM 46.0°F 30.9°F 56% 30.22 in 10.0 miles West 5.8 mph - N/A   Partly Cloudy
10:54 AM 48.9°F 28.9°F 46% 30.22 in 10.0 miles WNW 9.2 mph - N/A   Clear
11:54 AM 51.1°F 28.9°F 43% 30.20 in 10.0 miles Variable 4.6 mph - N/A   Clear
12:54 PM 52.0°F 28.9°F 41% 30.19 in 10.0 miles Variable 3.5 mph - N/A   Clear
1:54 PM 55.0°F 28.0°F 35% 30.15 in 10.0 miles West 8.1 mph - N/A   Clear
2:54 PM 55.0°F 30.0°F 38% 30.14 in 10.0 miles SW 8.1 mph - N/A   Clear
3:54 PM 55.0°F 30.9°F 40% 30.13 in 10.0 miles SW 8.1 mph - N/A   Clear
4:54 PM 55.0°F 30.0°F 38% 30.12 in 10.0 miles SW 11.5 mph 16.1 mph N/A   Clear
5:54 PM 53.1°F 30.0°F 41% 30.13 in 10.0 miles SSW 8.1 mph 17.3 mph N/A   Clear
6:54 PM 48.0°F 33.1°F 56% 30.13 in 10.0 miles Calm Calm - N/A   Clear
7:54 PM 50.0°F 32.0°F 50% 30.13 in 10.0 miles SSW 6.9 mph - N/A   Clear
8:54 PM 50.0°F 30.9°F 48% 30.13 in 10.0 miles SSW 8.1 mph - N/A   Clear
9:54 PM 46.0°F 33.1°F 61% 30.14 in 10.0 miles West 4.6 mph - N/A   Clear
10:54 PM 43.0°F 35.1°F 74% 30.14 in 10.0 miles Calm Calm - N/A   Clear
11:54 PM 44.1°F 34.0°F 68% 30.13 in 10.0 miles SW 5.8 mph - N/A   Clear
Astronomy
Sunrise:07:10 AM (EDT) Moon Rise:02:44 AM (EDT)10/11
Sunset:06:27 PM (EDT) Moon Set:04:04 PM (EDT)10/11
Moon Phase
Oct. 11 Oct. 15 Oct. 21 Oct. 29 Nov. 06

Copyright © 2014 The Weather Underground, Inc.
8,